Regional Weather Roundup
Issued by NWS Sioux Falls, SD

Home | Current Version | Previous Version | Text Only | Print | Product List | Glossary On
Versions: 1 2 3 4 5 6 7 8 9 10 11 12 13 14 15 16 17 18 19 20 21 22 23 24 25 26 27 28 29 30 31 32 33 34 35 36 37 38 39 40 41 42 43 44 45 46 47 48 49 50
000
ASUS43 KFSD 192010
RWRFSD

WEATHER ROUNDUP FOR SE SOUTH DAKOTA/SW MINNESOTA/NW IOWA
NATIONAL WEATHER SERVICE SIOUX FALLS SD
300 PM CDT TUE SEP 19 2017

NOTE: "FAIR" INDICATES FEW OR NO CLOUDS BELOW 12,000 FEET WITH NO
SIGNIFICANT WEATHER AND OR OBSTRUCTIONS TO VISIBILITY.


SDZ038>040-050-052>070-192100-
SOUTHEAST SOUTH DAKOTA

CITY           SKY/WX    TMP DP  RH WIND       PRES   REMARKS
BROOKINGS      CLOUDY    76  68  76 SE21G29   29.59F
CHAMBERLAIN    CLOUDY    82  70  66 SE18G25   29.46F
HURON          CLOUDY    79  67  66 SE22G38   29.47F
MADISON        FAIR      75  73  94 SE21G35   29.59F
MITCHELL       CLOUDY    83  67  58 SE30G39   29.50F
SIOUX FALLS    CLOUDY    81  70  69 SE21G32   29.60F
WINNER         FAIR      79  66  64 S23G30    29.47F
YANKTON        CLOUDY    82  69  64 SE22G30   29.55F
$$

MNZ071-072-080-081-089-090-097-098-192100-
SOUTHWEST MINNESOTA

CITY           SKY/WX    TMP DP  RH WIND       PRES   REMARKS
FAIRMONT       CLOUDY    77  67  71 SE20G32   29.75F
JACKSON        MOSUNNY   73  64  73 SE18G28   29.73F
LUVERNE        CLOUDY    77  64  65 SE18G25   29.64F
MARSHALL       CLOUDY    75  67  76 SE22G29   29.65F
MONTEVIDEO     CLOUDY    75  64  69 S16G25    29.66F
PIPESTONE      MOSUNNY   79  68  69 SE14G25   29.63F
REDWOOD FALLS  CLOUDY    76  64  66 SE23G31   29.70F
TRACY          CLOUDY    76  69  77 SE20G28   29.68F
WORTHINGTON    CLOUDY    75  67  76 SE21G31   29.69F
$$

IAZ001>003-012>014-020>022-031-032-NEZ013-014-SDZ071-192100-
NORTHWEST IOWA

CITY           SKY/WX    TMP DP  RH WIND       PRES   REMARKS
CHEROKEE       CLOUDY    77  70  80 SE15G22   29.68F
DENISON        SUNNY     82  70  65 SE12G23   29.70F
ESTHERVILLE    MOSUNNY   74  68  81 SE20      29.73F
LE MARS        SUNNY     82  70  65 SE21G32   29.62F
ORANGE CITY    MOSUNNY   81  72  74 SE12G18   29.64F
SHELDON        CLOUDY    75  68  78 SE17G28   29.65F
SIOUX CITY     SUNNY     84  70  62 SE20G28   29.60F
SPENCER        MOSUNNY   78  68  71 SE22G31   29.69F
STORM LAKE     PTSUNNY   77  68  73 SE17G28   29.71F
$$

ABBREVIATIONS USED IN REMARKS
   TC - TEMPERATURE IN CELSIUS
  WCI - WIND CHILL INDEX
   HX - HEAT INDEX
  VSB - VISIBILITY




USA.gov is the U.S. government's official web portal to all federal, state and local government web resources and services.